QFA147 YSSY-YMML

Flight info

Callsign QFA147
Flight time 1h 36m
Altitude 32000
Route MARUB7/34R WOL DCT CB DCT BOYSE
Aircraft B738/M-SDE2E3FGHIRWXY/LB1

Departure

Time 2026-05-04 06:18
Airport Sydney Kingsford Smith International Airport (YSSY)

Arrival

Time 2026-05-04 07:54
Airport Melbourne Airport (YMML)
Time Latitude Longitude Altitude Speed Heading
2026-05-04 05:06 -33.93942 151.16466 20 ft 0 kts 148°
2026-05-04 05:54 -33.93867 151.16446 21 ft 2 kts 259°
2026-05-04 05:58 -33.93867 151.16441 23 ft 5 kts 259°
2026-05-04 05:59 -33.93870 151.16373 21 ft 6 kts 264°
2026-05-04 05:59 -33.93900 151.16320 20 ft 8 kts 212°
2026-05-04 05:59 -33.93954 151.16300 20 ft 8 kts 192°
2026-05-04 05:59 -33.94007 151.16287 21 ft 7 kts 191°
2026-05-04 06:00 -33.94056 151.16277 20 ft 7 kts 188°
2026-05-04 06:00 -33.94103 151.16277 20 ft 7 kts 171°
2026-05-04 06:00 -33.94138 151.16287 20 ft 4 kts 161°
2026-05-04 06:00 -33.94160 151.16303 21 ft 4 kts 141°
2026-05-04 06:01 -33.94175 151.16328 21 ft 4 kts 115°
2026-05-04 06:01 -33.94177 151.16358 20 ft 4 kts 82°
2026-05-04 06:03 -33.94118 151.16598 20 ft 5 kts 74°
2026-05-04 06:03 -33.94112 151.16626 22 ft 0 kts 73°
2026-05-04 06:05 -33.94045 151.16906 20 ft 11 kts 72°
2026-05-04 06:05 -33.94010 151.17053 22 ft 10 kts 74°
2026-05-04 06:05 -33.93990 151.17139 19 ft 11 kts 75°
2026-05-04 06:06 -33.93991 151.17214 19 ft 8 kts 123°
2026-05-04 06:06 -33.94030 151.17239 20 ft 6 kts 166°
2026-05-04 06:06 -33.94081 151.17252 22 ft 10 kts 168°
2026-05-04 06:06 -33.94169 151.17274 21 ft 16 kts 168°
2026-05-04 06:07 -33.94295 151.17308 23 ft 9 kts 170°
2026-05-04 06:07 -33.94334 151.17317 26 ft 10 kts 168°
2026-05-04 06:07 -33.94410 151.17338 27 ft 13 kts 166°
2026-05-04 06:07 -33.94483 151.17357 29 ft 11 kts 168°
2026-05-04 06:08 -33.94560 151.17377 27 ft 11 kts 168°
2026-05-04 06:08 -33.94636 151.17396 28 ft 11 kts 168°
2026-05-04 06:08 -33.94712 151.17415 24 ft 12 kts 168°
2026-05-04 06:08 -33.94802 151.17439 22 ft 15 kts 167°
2026-05-04 06:09 -33.94895 151.17464 19 ft 9 kts 167°
2026-05-04 06:09 -33.94958 151.17480 19 ft 9 kts 168°
2026-05-04 06:11 -33.95519 151.17625 21 ft 12 kts 168°
2026-05-04 06:11 -33.95598 151.17645 21 ft 11 kts 168°
2026-05-04 06:13 -33.96085 151.17772 24 ft 9 kts 167°
2026-05-04 06:14 -33.96440 151.17923 23 ft 0 kts 89°
2026-05-04 06:15 -33.96439 151.17943 23 ft 0 kts 82°
2026-05-04 06:16 -33.96432 151.17984 23 ft 11 kts 79°
2026-05-04 06:16 -33.96393 151.18052 24 ft 10 kts
2026-05-04 06:16 -33.96379 151.18051 25 ft 0 kts 351°
2026-05-04 06:17 -33.96370 151.18049 23 ft 8 kts 350°
2026-05-04 06:17 -33.96089 151.17978 18 ft 82 kts 348°
2026-05-04 06:17 -33.95275 151.17771 24 ft 153 kts 348°
2026-05-04 06:17 -33.94030 151.17449 27 ft 207 kts 350°
2026-05-04 06:18 -33.92579 151.17059 652 ft 220 kts 349°
2026-05-04 06:18 -33.91078 151.16621 1496 ft 227 kts 347°
2026-05-04 06:18 -33.89660 151.16033 2540 ft 221 kts 326°
2026-05-04 06:20 -33.84656 151.04022 6911 ft 250 kts 303°
2026-05-04 06:20 -33.83730 151.02234 7655 ft 254 kts 299°
2026-05-04 06:21 -33.82068 150.93653 7526 ft 258 kts 284°
2026-05-04 06:21 -33.81723 150.91542 7223 ft 257 kts 284°
2026-05-04 06:22 -33.81382 150.89478 7153 ft 248 kts 284°
2026-05-04 06:22 -33.81048 150.87469 7140 ft 243 kts 284°
2026-05-04 06:25 -34.03771 150.81279 13651 ft 381 kts 185°
2026-05-04 06:25 -34.06443 150.81185 14225 ft 385 kts 185°
2026-05-04 06:26 -34.09105 150.81080 14815 ft 388 kts 186°
2026-05-04 06:26 -34.11818 150.80966 15391 ft 392 kts 186°
2026-05-04 06:26 -34.14561 150.80849 15933 ft 396 kts 186°
2026-05-04 06:26 -34.17323 150.80731 16547 ft 398 kts 186°
2026-05-04 06:27 -34.28595 150.80252 18733 ft 411 kts 186°
2026-05-04 06:28 -34.31430 150.80132 19233 ft 414 kts 186°
2026-05-04 06:28 -34.34310 150.80010 19737 ft 416 kts 186°
2026-05-04 06:28 -34.37210 150.79888 20274 ft 416 kts 187°
2026-05-04 06:28 -34.40081 150.79769 21089 ft 410 kts 187°
2026-05-04 06:29 -34.42931 150.79649 21636 ft 411 kts 187°
2026-05-04 06:29 -34.45810 150.79523 22040 ft 416 kts 187°
2026-05-04 06:29 -34.48714 150.79398 22457 ft 420 kts 187°
2026-05-04 06:29 -34.51635 150.79219 22915 ft 419 kts 194°
2026-05-04 06:30 -34.54370 150.78202 23333 ft 404 kts 215°
2026-05-04 06:30 -34.56631 150.76289 23774 ft 392 kts 230°
2026-05-04 06:30 -34.58355 150.73794 24131 ft 382 kts 245°
2026-05-04 06:30 -34.59704 150.71023 24512 ft 382 kts 247°
2026-05-04 06:31 -34.60999 150.68184 24837 ft 385 kts 248°
2026-05-04 06:31 -34.62282 150.65317 25180 ft 388 kts 248°
2026-05-04 06:31 -34.63574 150.62434 25527 ft 391 kts 248°
2026-05-04 06:31 -34.64885 150.59529 25840 ft 393 kts 248°
2026-05-04 06:32 -34.66212 150.56612 26215 ft 395 kts 248°
2026-05-04 06:33 -34.75570 150.36230 29046 ft 395 kts 248°
2026-05-04 06:34 -34.76905 150.33317 29529 ft 393 kts 248°
2026-05-04 06:34 -34.78238 150.30406 29931 ft 393 kts 247°
2026-05-04 06:34 -34.79558 150.27522 30194 ft 395 kts 248°
2026-05-04 06:34 -34.80889 150.24613 30671 ft 390 kts 248°
2026-05-04 06:35 -34.82195 150.21759 31212 ft 383 kts 248°
2026-05-04 06:36 -34.91935 150.01106 31964 ft 425 kts 242°
2026-05-04 06:37 -34.95530 149.95325 31984 ft 429 kts 240°
2026-05-04 06:37 -34.99154 149.89563 31985 ft 426 kts 241°
2026-05-04 06:38 -35.02727 149.83800 32007 ft 426 kts 241°
2026-05-04 06:40 -35.16942 149.60533 32009 ft 429 kts 242°
2026-05-04 06:40 -35.20506 149.54674 32026 ft 429 kts 242°
2026-05-04 06:41 -35.24045 149.48852 32027 ft 423 kts 242°
2026-05-04 06:41 -35.27537 149.43094 32036 ft 421 kts 242°
2026-05-04 06:42 -35.31002 149.37364 32049 ft 422 kts 242°
2026-05-04 06:44 -35.44971 149.14182 32051 ft 422 kts 243°
2026-05-04 06:44 -35.48462 149.08366 32033 ft 422 kts 243°
2026-05-04 06:45 -35.51912 149.02610 32023 ft 421 kts 243°
2026-05-04 06:45 -35.55373 148.96824 32020 ft 420 kts 243°
2026-05-04 06:46 -35.58828 148.91041 32011 ft 419 kts 243°
2026-05-04 06:46 -35.62268 148.85269 32016 ft 420 kts 243°
2026-05-04 06:48 -35.76019 148.62107 32022 ft 420 kts 244°
2026-05-04 06:50 -35.89773 148.38792 32035 ft 421 kts 244°
2026-05-04 06:51 -35.93218 148.32925 32047 ft 424 kts 244°
2026-05-04 06:51 -35.96685 148.27008 32038 ft 426 kts 244°
2026-05-04 06:52 -36.00166 148.21062 32035 ft 428 kts 244°
2026-05-04 06:52 -36.03060 148.16113 32033 ft 427 kts 244°
2026-05-04 06:53 -36.06542 148.10147 32035 ft 427 kts 245°
2026-05-04 06:53 -36.10012 148.04189 32018 ft 427 kts 244°
2026-05-04 06:54 -36.13473 147.98240 32024 ft 425 kts 245°
2026-05-04 06:54 -36.16923 147.92296 32022 ft 424 kts 245°
2026-05-04 06:55 -36.20358 147.86368 32025 ft 424 kts 245°
2026-05-04 06:55 -36.23768 147.80470 32024 ft 423 kts 245°
2026-05-04 06:57 -36.37456 147.56697 32016 ft 424 kts 245°
2026-05-04 06:58 -36.40878 147.50731 32021 ft 424 kts 244°
2026-05-04 06:58 -36.44306 147.44741 32023 ft 424 kts 244°
2026-05-04 06:59 -36.47728 147.38753 32005 ft 424 kts 244°
2026-05-04 06:59 -36.51139 147.32772 32011 ft 424 kts 244°
2026-05-04 07:01 -36.64769 147.08772 32023 ft 425 kts 244°
2026-05-04 07:02 -36.68165 147.02772 31982 ft 413 kts 244°
2026-05-04 07:02 -36.69780 146.99933 31984 ft 399 kts 244°
2026-05-04 07:02 -36.71385 146.97100 32001 ft 395 kts 244°
2026-05-04 07:03 -36.74527 146.91510 31738 ft 394 kts 244°
2026-05-04 07:03 -36.76068 146.88767 31468 ft 388 kts 244°
2026-05-04 07:03 -36.77630 146.85988 31101 ft 386 kts 244°
2026-05-04 07:04 -36.79166 146.83251 30731 ft 383 kts 244°
2026-05-04 07:04 -36.80689 146.80538 30393 ft 380 kts 244°
2026-05-04 07:04 -36.82185 146.77870 30025 ft 378 kts 244°
2026-05-04 07:04 -36.83690 146.75183 29566 ft 376 kts 245°
2026-05-04 07:05 -36.85177 146.72529 29193 ft 372 kts 245°
2026-05-04 07:05 -36.86668 146.69864 28801 ft 370 kts 245°
2026-05-04 07:05 -36.88130 146.67249 28411 ft 367 kts 245°
2026-05-04 07:05 -36.89587 146.64643 28046 ft 364 kts 245°
2026-05-04 07:06 -36.92466 146.59483 27312 ft 359 kts 245°
2026-05-04 07:06 -36.93884 146.56939 26949 ft 357 kts 245°
2026-05-04 07:06 -36.95290 146.54415 26595 ft 354 kts 245°
2026-05-04 07:07 -36.96688 146.51903 26241 ft 352 kts 245°
2026-05-04 07:08 -37.06311 146.34556 23784 ft 342 kts 245°
2026-05-04 07:09 -37.07667 146.32104 23378 ft 342 kts 245°
2026-05-04 07:09 -37.09015 146.29667 22999 ft 340 kts 245°
2026-05-04 07:09 -37.10365 146.27225 22633 ft 338 kts 245°
2026-05-04 07:09 -37.11702 146.24805 22288 ft 335 kts 245°
2026-05-04 07:10 -37.13018 146.22420 21941 ft 333 kts 244°
2026-05-04 07:10 -37.14331 146.20040 21598 ft 331 kts 244°
2026-05-04 07:12 -37.23245 146.03825 19310 ft 316 kts 243°
2026-05-04 07:12 -37.24491 146.01551 18983 ft 315 kts 242°
2026-05-04 07:12 -37.25732 145.99285 18667 ft 314 kts 242°
2026-05-04 07:12 -37.26966 145.97031 18334 ft 313 kts 242°
2026-05-04 07:13 -37.28194 145.94787 17991 ft 312 kts 242°
2026-05-04 07:13 -37.29419 145.92546 17642 ft 309 kts 242°
2026-05-04 07:13 -37.30632 145.90327 17315 ft 307 kts 241°
2026-05-04 07:14 -37.35412 145.81565 16043 ft 300 kts 241°
2026-05-04 07:14 -37.36583 145.79416 15754 ft 298 kts 241°
2026-05-04 07:15 -37.37754 145.77261 15438 ft 297 kts 241°
2026-05-04 07:15 -37.38919 145.75120 15124 ft 296 kts 241°
2026-05-04 07:15 -37.40074 145.72995 14832 ft 294 kts 241°
2026-05-04 07:15 -37.41229 145.70869 14520 ft 293 kts 241°
2026-05-04 07:16 -37.42373 145.68763 14222 ft 291 kts 241°
2026-05-04 07:16 -37.43513 145.66661 13918 ft 291 kts 240°
2026-05-04 07:16 -37.44658 145.64551 13596 ft 291 kts 240°
2026-05-04 07:16 -37.45807 145.62473 13203 ft 292 kts 239°
2026-05-04 07:17 -37.47008 145.60407 12859 ft 291 kts 239°
2026-05-04 07:17 -37.48187 145.58403 12530 ft 285 kts 239°
2026-05-04 07:17 -37.49354 145.56418 12193 ft 279 kts 239°
2026-05-04 07:17 -37.50518 145.54424 11671 ft 284 kts 239°
2026-05-04 07:18 -37.51688 145.52413 11183 ft 286 kts 239°
2026-05-04 07:18 -37.52867 145.50382 10683 ft 286 kts 240°
2026-05-04 07:18 -37.54039 145.48366 10191 ft 284 kts 240°
2026-05-04 07:18 -37.55200 145.46365 9694 ft 282 kts 240°
2026-05-04 07:19 -37.56356 145.44372 9171 ft 281 kts 240°
2026-05-04 07:19 -37.57511 145.42378 8589 ft 282 kts 241°
2026-05-04 07:19 -37.58675 145.40365 7969 ft 284 kts 241°
2026-05-04 07:19 -37.59843 145.38345 7382 ft 286 kts 241°
2026-05-04 07:20 -37.61020 145.36306 6783 ft 288 kts 241°
2026-05-04 07:20 -37.62204 145.34257 6183 ft 289 kts 241°
2026-05-04 07:20 -37.63388 145.32208 5583 ft 290 kts 242°
2026-05-04 07:20 -37.64539 145.30220 5304 ft 278 kts 241°
2026-05-04 07:22 -37.71781 145.17651 4960 ft 232 kts 243°
2026-05-04 07:22 -37.72716 145.16026 4977 ft 225 kts 243°
2026-05-04 07:23 -37.73637 145.14417 4999 ft 227 kts 243°
2026-05-04 07:23 -37.74572 145.12782 5006 ft 231 kts 243°
2026-05-04 07:23 -37.75518 145.11131 4996 ft 231 kts 243°
2026-05-04 07:23 -37.76452 145.09508 4875 ft 226 kts 243°
2026-05-04 07:24 -37.77368 145.07911 4493 ft 226 kts 243°
2026-05-04 07:24 -37.78294 145.06292 4085 ft 226 kts 243°
2026-05-04 07:24 -37.79197 145.04714 3715 ft 225 kts 243°
2026-05-04 07:24 -37.80109 145.03121 3320 ft 225 kts 243°
2026-05-04 07:25 -37.81021 145.01522 2951 ft 224 kts 245°
2026-05-04 07:26 -37.82910 144.88786 2479 ft 191 kts 296°
2026-05-04 07:27 -37.82232 144.87483 2474 ft 169 kts 318°
2026-05-04 07:27 -37.81344 144.86689 2461 ft 152 kts 333°
2026-05-04 07:27 -37.80331 144.86342 2428 ft 156 kts 345°
2026-05-04 07:27 -37.79215 144.86078 2468 ft 163 kts 346°
2026-05-04 07:28 -37.78119 144.85864 2258 ft 156 kts 347°
2026-05-04 07:28 -37.77068 144.85670 2039 ft 149 kts 348°
2026-05-04 07:28 -37.76109 144.85498 1996 ft 125 kts 348°
2026-05-04 07:28 -37.75322 144.85394 1890 ft 102 kts 349°
2026-05-04 07:29 -37.74580 144.85324 1748 ft 125 kts 352°
2026-05-04 07:29 -37.73589 144.85189 2161 ft 154 kts 349°
2026-05-04 07:29 -37.72529 144.85024 3212 ft 148 kts 346°
2026-05-04 07:29 -37.71522 144.84897 3464 ft 151 kts 345°
2026-05-04 07:30 -37.70399 144.84635 3332 ft 178 kts 341°
2026-05-04 07:30 -37.69170 144.84277 3520 ft 186 kts 343°
2026-05-04 07:30 -37.67850 144.83993 3748 ft 199 kts 345°
2026-05-04 07:30 -37.66451 144.83693 4432 ft 214 kts 344°
2026-05-04 07:31 -37.64901 144.83310 4805 ft 244 kts 343°
2026-05-04 07:31 -37.63128 144.82793 5108 ft 275 kts 342°
2026-05-04 07:33 -37.59830 144.69736 5027 ft 277 kts 218°
2026-05-04 07:33 -37.61638 144.68707 4478 ft 286 kts 208°
2026-05-04 07:33 -37.63484 144.67844 4031 ft 282 kts 207°
2026-05-04 07:33 -37.65383 144.67016 3495 ft 283 kts 207°
2026-05-04 07:34 -37.67184 144.66192 3327 ft 275 kts 207°
2026-05-04 07:34 -37.68978 144.65511 3434 ft 263 kts 203°
2026-05-04 07:34 -37.70691 144.64885 3867 ft 250 kts 204°
2026-05-04 07:34 -37.72362 144.64284 3958 ft 247 kts 202°
2026-05-04 07:35 -37.73989 144.63673 3984 ft 239 kts 209°
2026-05-04 07:35 -37.75566 144.63056 3988 ft 236 kts 207°
2026-05-04 07:35 -37.77159 144.62470 3982 ft 240 kts 205°
2026-05-04 07:35 -37.78763 144.61855 3995 ft 242 kts 206°
2026-05-04 07:36 -37.80354 144.61180 3991 ft 240 kts 207°
2026-05-04 07:36 -37.81917 144.60512 3973 ft 235 kts 207°
2026-05-04 07:38 -37.92464 144.59506 3940 ft 251 kts 156°
2026-05-04 07:38 -37.93925 144.60725 3965 ft 252 kts 144°
2026-05-04 07:38 -37.95288 144.62167 3977 ft 256 kts 142°
2026-05-04 07:38 -37.96649 144.63645 3964 ft 259 kts 142°
2026-05-04 07:39 -37.98011 144.65128 3963 ft 258 kts 141°
2026-05-04 07:39 -37.99378 144.66605 3943 ft 257 kts 141°
2026-05-04 07:39 -38.00688 144.68142 3955 ft 257 kts 133°
2026-05-04 07:39 -38.01757 144.69952 3958 ft 257 kts 120°
2026-05-04 07:40 -38.02530 144.71986 3963 ft 255 kts 107°
2026-05-04 07:40 -38.02976 144.74147 3961 ft 252 kts 94°
2026-05-04 07:40 -38.03212 144.76346 3967 ft 251 kts 92°
2026-05-04 07:40 -38.03424 144.78550 3967 ft 252 kts 92°
2026-05-04 07:41 -38.03634 144.80768 3976 ft 256 kts 92°
2026-05-04 07:41 -38.03845 144.83025 3964 ft 256 kts 91°
2026-05-04 07:41 -38.03991 144.85251 3949 ft 252 kts 88°
2026-05-04 07:41 -38.04080 144.87464 3950 ft 251 kts 87°
2026-05-04 07:42 -38.04164 144.89680 3967 ft 252 kts 87°
2026-05-04 07:42 -38.04245 144.91906 3964 ft 253 kts 87°
2026-05-04 07:42 -38.04328 144.94145 3963 ft 254 kts 87°
2026-05-04 07:42 -38.04412 144.96380 3964 ft 254 kts 87°
2026-05-04 07:43 -38.04496 144.98616 3950 ft 253 kts 87°
2026-05-04 07:43 -38.04582 145.00829 3947 ft 250 kts 87°
2026-05-04 07:43 -38.04657 145.03028 3955 ft 249 kts 81°
2026-05-04 07:43 -38.04139 145.04983 3963 ft 225 kts 40°
2026-05-04 07:44 -38.02900 145.05918 3958 ft 199 kts 358°
2026-05-04 07:44 -38.01568 145.05801 3967 ft 190 kts 346°
2026-05-04 07:44 -38.00359 145.05445 3949 ft 168 kts 333°
2026-05-04 07:44 -37.99377 145.04806 3949 ft 151 kts 322°
2026-05-04 07:45 -37.98643 145.03899 3971 ft 147 kts 310°
2026-05-04 07:45 -37.97981 145.02904 3966 ft 151 kts 311°
2026-05-04 07:45 -37.97302 145.01889 3970 ft 150 kts 311°
2026-05-04 07:45 -37.96632 145.00886 3928 ft 148 kts 310°
2026-05-04 07:46 -37.95977 144.99902 3659 ft 145 kts 310°
2026-05-04 07:46 -37.95324 144.98918 3252 ft 147 kts 311°
2026-05-04 07:46 -37.94667 144.97926 2937 ft 142 kts 311°
2026-05-04 07:46 -37.94063 144.97013 3009 ft 135 kts 311°
2026-05-04 07:47 -37.93430 144.96057 3105 ft 146 kts 311°
2026-05-04 07:47 -37.92769 144.95055 3117 ft 149 kts 310°
2026-05-04 07:47 -37.92107 144.94052 3111 ft 147 kts 311°
2026-05-04 07:49 -37.87111 144.87634 3141 ft 161 kts 344°
2026-05-04 07:49 -37.86000 144.87413 3150 ft 162 kts 344°
2026-05-04 07:49 -37.84896 144.87190 3073 ft 161 kts 345°
2026-05-04 07:50 -37.83807 144.86974 2759 ft 158 kts 345°
2026-05-04 07:50 -37.82729 144.86764 2539 ft 157 kts 346°
2026-05-04 07:50 -37.81640 144.86554 2516 ft 160 kts 345°
2026-05-04 07:50 -37.80537 144.86343 2500 ft 159 kts 346°
2026-05-04 07:51 -37.79440 144.86136 2497 ft 159 kts 346°
2026-05-04 07:51 -37.78355 144.85932 2334 ft 155 kts 346°
2026-05-04 07:51 -37.77289 144.85730 1962 ft 155 kts 347°
2026-05-04 07:51 -37.76222 144.85530 1675 ft 155 kts 348°
2026-05-04 07:52 -37.75125 144.85323 1666 ft 161 kts 348°
2026-05-04 07:52 -37.74018 144.85109 1603 ft 161 kts 348°
2026-05-04 07:52 -37.72901 144.84894 1286 ft 157 kts 353°
2026-05-04 07:52 -37.71792 144.84789 1024 ft 167 kts 352°
2026-05-04 07:53 -37.70707 144.84521 783 ft 151 kts 348°
2026-05-04 07:54 -37.66865 144.83899 394 ft 8 kts 13°
2026-05-04 07:55 -37.66820 144.83916 397 ft 5 kts 33°
2026-05-04 07:55 -37.66788 144.83939 397 ft 6 kts 26°
2026-05-04 07:55 -37.66758 144.83955 397 ft 7 kts 22°
2026-05-04 07:55 -37.66695 144.83985 400 ft 13 kts 19°
2026-05-04 07:56 -37.66645 144.84008 402 ft 0 kts 19°
2026-05-04 07:56 -37.66638 144.84012 402 ft 8 kts 19°
2026-05-04 07:56 -37.66585 144.84046 402 ft 8 kts 37°
2026-05-04 07:57 -37.66551 144.84111 407 ft 8 kts 73°
2026-05-04 07:57 -37.66542 144.84177 409 ft 10 kts 82°
2026-05-04 07:57 -37.66538 144.84209 409 ft 6 kts 81°
2026-05-04 07:57 -37.66530 144.84286 407 ft 12 kts 84°
2026-05-04 07:58 -37.66565 144.84361 410 ft 10 kts 165°
2026-05-04 07:58 -37.66652 144.84396 408 ft 16 kts 150°
2026-05-04 07:58 -37.66672 144.84475 406 ft 7 kts 67°
2026-05-04 07:58 -37.66661 144.84535 405 ft 7 kts 84°
2026-05-04 07:59 -37.66656 144.84604 410 ft 8 kts 92°
2026-05-04 07:59 -37.66694 144.84637 409 ft 6 kts 183°
2026-05-04 07:59 -37.66734 144.84643 408 ft 6 kts 172°
2026-05-04 07:59 -37.66740 144.84643 408 ft 0 kts 173°